Location: Del Amo
(33.8464°N, 118.2104°W)
Time: 18:55:05
(UTC+00:00)

S-56A Canister/Altair - Pass Details

Date: 19 September 2024
Orbit: 636 x 2487 km, 38.9° (Epoch: 14 October)

Event Time Altitude Azimuth Distance (km) Brightness Sun altitude
Rises 22:59:12 0° 211° (SSW) 2,957 11.3 34.3°
Reaches altitude 10° 23:01:52 10° 197° (SSW) 2,008 10.3 33.8°
Maximum altitude 23:05:25 23° 143° (SE) 1,352 8.9 33.1°
Drops below altitude 10° 23:09:14 10° 89° (E) 2,174 9.5 32.4°
Sets 23:12:15 0° 76° (ENE) 3,271 10.2 31.8°
